Regional Weather Roundup
Issued by NWS New Orleans/Baton Rouge, LA

Home | Current Version | Previous Version | Text Only | Print | Product List | Glossary On
Versions: 1 2 3 4 5 6 7 8 9 10 11 12 13 14 15 16 17 18 19 20 21 22 23 24 25 26 27
000
ASUS44 KLIX 301513
RWRLIX
NEW ORLEANS REGIONAL WEATHER ROUNDUP
NATIONAL WEATHER SERVICE NEW ORLEANS LA
1000 AM CDT THU MAR 30 2017

NOTE: "FAIR" INDICATES FEW OR NO CLOUDS BELOW 12,000 FEET WITH NO
      SIGNIFICANT WEATHER AND/OR OBSTRUCTIONS TO VISIBILITY.
      SKY/WX - SKY CONDITION AND SIGNIFICANT WEATHER.
      TMP - AIR TEMPERATURE.     DP    - DEWPOINT TEMPERATURE.
      RH  - RELATIVE HUMIDITY.   PRES  - PRESSURE.
      HI  - HEAT INDEX.          WCI   - WIND CHILL INDEX.

*  THESE STATIONS ARE NOT NWS OR FAA STATIONS AND ARE NOT UNDER
   NWS QUALITY CONTROL.

LAZ038-040-048-061>063-065>067-069-301600-
SOUTHEAST LOUISIANA

CITY           SKY/WX    TMP DP  RH WIND       PRES   REMARKS
N.O. INTL ARPT TSTM      62  60  93 VRB3      29.93F FOG
N.O. LAKEFRONT TSTM      64  62  93 W8        29.96F FOG
N.O. DOWNTOWN* TSTM      63  61  94 NW8G18    29.98R FOG
RESERVE*       NOT AVBL
SLIDELL        TSTM      61  59  93 W9G29     29.99R VSB 1/2
BATON ROUGE    TSTM      67  64  90 SE17      29.83F
BOOTHVILLE     CLOUDY    76  72  87 S13G20    29.91R
BELLE CHASSE   TSTM      66  66 100 W8G18     29.97R VSB 3/4
BOGALUSA*      NOT AVBL
GALLIANO*      CLOUDY    65  58  78 NW17G30   29.94R
NEW ROADS*       N/A     65  62  90 SE7       29.84F
GONZALES*      NOT AVBL
HAMMOND*       RAIN      63  59  88 S6        29.92R
HOUMA*         LGT RAIN  63  61  94 NW3       29.93R
PORT FOURCHON* MOSUNNY   75  70  83 SE9       29.89S

$$

MSZ070-080>082-301600-
SOUTHERN MISSISSIPPI

CITY           SKY/WX    TMP DP  RH WIND       PRES   REMARKS
MCCOMB         PTSUNNY   65  62  90 CALM      29.89R
GULFPORT       CLOUDY    78  71  79 SE14      29.90S
BILOXI         PTSUNNY   77  71  80 S13       29.90S
PASCAGOULA     PTSUNNY   75  67  76 S12G18    29.91F
STENNIS ARPT*  PTSUNNY   73  66  78 S12G18    29.88F

$$

COASTAL OBSERVATIONS
LAKE AND NEARSHORE STATIONS

STATION/POSITION TIME  TEMP    WIND        PRES    WAVE
                       AIR SEA DIR/SP/G            HT/PER
                 (UTC) (F)     (DEG/KT/KT) (MB)    (FT/S)
PASCAGOULA       1442   76     140/ 10/ 15 1012.6
WAVELAND YACHT   1442   74 75  170/ 13/ 16 1011.9
GRAND ISLE       1442   75 76  180/  5/  9 1012.3
SOUTHWEST PASS   1442          150/ 10/ 13   N/A
NEW CANAL        1442   63 72  270/  6/ 10 1014.2
SHELL BEACH      1442   74 76  160/ 14/ 17 1012.5

OFFSHORE STATIONS

STATION/POSITION TIME  TEMP    WIND        PRES    WAVE
                       AIR SEA DIR/SP/G            HT/PER
                 (UTC) (F)     (DEG/KT/KT) (MB)    (FT/S)
64 S DAUPHIN ISL 1450   74 73  140/ 12/ 16 1013.1    4/ 6

$$





USA.gov is the U.S. government's official web portal to all federal, state and local government web resources and services.